Simultaneous Nadir Overpasses (SNOs) Predictions

Prediction of SNOs near US between AQUA and NPP Satellite Orbit:

Table of predicted SNOs near US for the next 10.0 days since TLE Epoch: 2/28/2014
Index Date (AQUA) Time (AQUA) AQUA Lat,Lon Date (NPP) Time (NPP) NPP Lat,Lon Distance(km) Time Diff (sec)
1 03/02/2014 18:17:34 49.97, -80.22 03/02/2014 18:14:02 49.66, -81.79 118.01 212
2 03/02/2014 19:56:27 49.97,-104.94 03/02/2014 19:55:31 49.60,-107.14 163.24 56
3 03/02/2014 21:30:06 31.23,-123.49 03/02/2014 21:31:35 30.69,-125.98 245.15 89
4 03/05/2014 07:46:10 20.01, -89.50 03/05/2014 07:38:50 19.95, -89.35 16.43 440
5 03/05/2014 09:21:34 32.58,-111.08 03/05/2014 09:16:43 32.64,-111.37 28.67 291
6 03/08/2014 06:30:45 46.17, -65.02 03/08/2014 06:34:08 46.59, -67.01 159.72 203
7 03/08/2014 08:08:35 49.90, -88.27 03/08/2014 08:14:32 50.39, -90.76 186.14 357
8 03/08/2014 09:47:28 49.89,-112.99 03/08/2014 09:55:47 51.25,-115.74 246.09 499
9 03/10/2014 19:06:35 49.95, -92.45 03/10/2014 19:04:49 49.58, -94.41 146.99 106




NCC Satellite Simultaneous Nadir Overpasses (SNOs) Prediction Service
